Location: New Canada
(47.1017°N, 68.5042°W)
Time: 21:58:59
(UTC+00:00)

KKS-1 - Visible Passes

Search period start: 24 April 2024 00:00
Search period end: 04 May 2024 00:00
Orbit: 629 x 639 km, 98.1° (Epoch: 24 April)

Date Brightness Start Highest point End Pass type
(mag) Time Alt. Az. Time Alt. Az. Time Alt. Az.
24 Apr ? 04:05:08 10° NNE 04:08:11 43° N 04:08:11 43° N visible
24 Apr ? 05:44:03 10° NW 05:45:11 11° NW 05:45:39 11° WNW visible
25 Apr ? 02:51:17 10° NE 02:52:40 15° ENE 02:52:40 15° ENE visible
25 Apr ? 04:26:52 10° N 04:30:08 40° NNW 04:30:08 40° NNW visible
26 Apr ? 03:12:19 10° NNE 03:14:36 24° ENE 03:14:36 24° ENE visible
26 Apr ? 04:48:43 10° N 04:52:04 30° NW 04:52:04 30° NW visible
27 Apr ? 03:33:38 10° NNE 03:36:31 35° NE 03:36:31 35° NE visible
27 Apr ? 05:10:45 10° NNW 05:13:59 20° WNW 05:13:59 20° WNW visible
28 Apr ? 03:55:07 10° NNE 03:58:26 49° NNE 03:58:26 49° NNE visible
28 Apr ? 05:33:11 10° NNW 05:35:20 13° WNW 05:35:53 13° WNW visible
29 Apr ? 02:41:43 10° NE 02:42:52 13° ENE 02:42:52 13° ENE visible
29 Apr ? 04:16:45 10° N 04:20:20 51° NNW 04:20:20 51° NNW visible
30 Apr ? 03:02:28 10° NE 03:04:46 21° ENE 03:04:46 21° ENE visible
30 Apr ? 04:38:29 10° N 04:42:13 37° NW 04:42:13 37° NW visible
01 May ? 03:23:39 10° NNE 03:26:38 33° ENE 03:26:38 33° ENE visible
01 May ? 05:00:24 10° N 05:04:00 25° WNW 05:04:06 25° WNW visible
02 May ? 03:45:01 10° NNE 03:48:31 50° NE 03:48:31 50° NE visible
02 May ? 05:22:33 10° NNW 05:25:18 16° WNW 05:25:58 16° WNW visible
03 May ? 02:32:18 10° ENE 02:32:55 11° ENE 02:32:55 11° ENE visible
03 May ? 04:06:32 10° N 04:10:22 64° N 04:10:22 64° N visible
03 May ? 05:45:31 10° NW 05:46:34 11° NW 05:47:36 10° WNW visible
